This is the latest recevied weather packets stored in our database for station/object K4KMJ. If no packets are shown the sender has not sent any weather packets the latest 10 day(s).
| Time | Temp. | Humidity | Pressure | Rain* | Wind** | Luminosity | Snow |
|---|---|---|---|---|---|---|---|
| 1788640913 | 31.11° C | 78% | 1014.8 hPa | 0 mm | - | 555 W/m² | - |
| 1788640580 | 31.11° C | 81% | 1014.6 hPa | 0 mm | - | 540 W/m² | - |
| 1788640275 | 32.22° C | 78% | 1014.4 hPa | 0 mm | - | 543 W/m² | - |
| 1788639970 | 32.22° C | 77% | 1014.3 hPa | 0 mm | - | 587 W/m² | - |
| 1788639665 | 32.22° C | 77% | 1014.3 hPa | 0 mm | - | 213 W/m² | - |
| 1788639361 | 32.78° C | 77% | 1014.5 hPa | 0 mm | - | 653 W/m² | - |
| 1788639061 | 32.22° C | 77% | 1014.9 hPa | 0 mm | - | 628 W/m² | - |
| 1788638756 | 31.67° C | 80% | 1014.8 hPa | 0 mm | - | 667 W/m² | - |
| 1788638450 | 31.11° C | 78% | 1014.3 hPa | 0 mm | - | 372 W/m² | - |
| 1788638144 | 32.78° C | 73% | 1014.4 hPa | 0 mm | - | 169 W/m² | - |
| 1788637840 | 32.78° C | 70% | 1014.1 hPa | 0 mm | - | 138 W/m² | - |
| 1788637539 | 33.89° C | 68% | 1014.4 hPa | 0 mm | - | 141 W/m² | - |
| 1788637239 | 34.44° C | 68% | 1014.3 hPa | 0 mm | - | 183 W/m² | - |
| 1788636934 | 33.89° C | 69% | 1014.4 hPa | 0 mm | - | 571 W/m² | - |
| 1788636629 | 34.44° C | 66% | 1014.5 hPa | 0 mm | - | 150 W/m² | - |
| 1788636324 | 34.44° C | 66% | 1014.3 hPa | 0 mm | - | 343 W/m² | - |
| 1788636021 | 35.56° C | 65% | 1014.3 hPa | 0 mm | - | 668 W/m² | - |
| 1788635719 | 35.56° C | 67% | 1014.4 hPa | 0 mm | - | 626 W/m² | - |
| 1788635418 | 35° C | 67% | 1014.1 hPa | 0 mm | - | 653 W/m² | - |
| 1788635141 | 35° C | 67% | 1014.3 hPa | 0 mm | - | 654 W/m² | - |
| 1788634816 | 34.44° C | 69% | 1014.5 hPa | 0 mm | - | 639 W/m² | - |
| 1788634510 | 34.44° C | 68% | 1014.6 hPa | 0 mm | - | 636 W/m² | - |
| 1788634209 | 35° C | 69% | 1014.6 hPa | 0 mm | - | 648 W/m² | - |
| 1788633905 | 34.44° C | 70% | 1014.6 hPa | 0 mm | - | 682 W/m² | - |
| 1788633603 | 34.44° C | 68% | 1014.7 hPa | 0 mm | - | 701 W/m² | - |
* Rain latest hour (hover to see other rain measurements)
** Current wind speed in m/s (hover to see current wind gust speed)